ACA845 EDDF-CYUL

Flight info

Callsign ACA845
Flight time N/A
Altitude 38000
Route OBOKA3D/07C OBOKA Z29 TORNU DCT GALSO Q63 ERING L179 UGBET Q60 OKSAW DCT BIBPE DCT FELCA DCT FADZU DCT NICXI DCT OFSOX DCT SLANY/N0487F400 DCT MALOT/M084F400 DCT 54N020W 54N030W 52N040W 49N050W DCT JOOPY/N0481F400 N342B MIILS DCT KEBIG ROCKT3
Aircraft B789/H-VGDW/C

Departure

Time 2026-05-01 13:56
Airport Frankfurt Main Airport (EDDF)

Arrival

Time N/A
Airport Montreal / Pierre Elliott Trudeau International Airport (CYUL)
Time Latitude Longitude Altitude Speed Heading
2026-05-01 13:56 50.21951 8.76304 9196 ft 293 kts 358°
2026-05-01 13:56 50.23885 8.75940 9889 ft 297 kts 353°
2026-05-01 13:57 50.25904 8.75294 10593 ft 301 kts 348°
2026-05-01 13:57 50.27274 8.74708 10893 ft 311 kts 345°
2026-05-01 13:57 50.30086 8.73136 11339 ft 335 kts 339°
2026-05-01 13:57 50.32258 8.71588 11685 ft 353 kts 335°
2026-05-01 13:58 50.34451 8.69711 12337 ft 360 kts 331°
2026-05-01 13:58 50.36420 8.67326 13011 ft 365 kts 312°
2026-05-01 13:58 50.37622 8.63876 13639 ft 370 kts 286°
2026-05-01 13:58 50.38165 8.59905 14386 ft 370 kts 282°
2026-05-01 13:59 50.38747 8.55998 15076 ft 373 kts 283°
2026-05-01 13:59 50.39320 8.52046 15753 ft 376 kts 283°
2026-05-01 13:59 50.39830 8.48040 16352 ft 379 kts 276°
2026-05-01 13:59 50.39570 8.43956 16833 ft 382 kts 252°
2026-05-01 14:00 50.38762 8.39943 17462 ft 384 kts 254°
2026-05-01 14:00 50.38030 8.35943 18074 ft 387 kts 252°
2026-05-01 14:00 50.37218 8.31918 18700 ft 389 kts 252°
2026-05-01 14:00 50.36418 8.27854 19280 ft 392 kts 251°
2026-05-01 14:01 50.35604 8.23784 19869 ft 394 kts 252°
2026-05-01 14:01 50.34787 8.19691 20451 ft 397 kts 252°
2026-05-01 14:01 50.33957 8.15553 21016 ft 400 kts 252°
2026-05-01 14:01 50.33124 8.11402 21550 ft 403 kts 252°
2026-05-01 14:02 50.32281 8.07216 22107 ft 405 kts 252°
2026-05-01 14:02 50.31437 8.03032 22649 ft 408 kts 252°
2026-05-01 14:02 50.30584 7.98810 23169 ft 411 kts 252°
2026-05-01 14:02 50.29737 7.94522 23679 ft 414 kts 255°
2026-05-01 14:03 50.29475 7.90083 24019 ft 418 kts 276°
2026-05-01 14:03 50.30320 7.85787 24487 ft 418 kts 298°
2026-05-01 14:03 50.31684 7.81750 25056 ft 418 kts 296°
2026-05-01 14:03 50.32883 7.77669 25504 ft 421 kts 296°
2026-05-01 14:04 50.34131 7.73485 25946 ft 424 kts 296°
2026-05-01 14:04 50.35398 7.69330 26390 ft 425 kts 301°
2026-05-01 14:04 50.37274 7.65815 26701 ft 426 kts 322°
2026-05-01 14:04 50.38948 7.64196 26942 ft 426 kts 337°
2026-05-01 14:05 50.42642 7.61972 27567 ft 426 kts 338°
2026-05-01 14:05 50.45363 7.60108 28014 ft 428 kts 338°
2026-05-01 14:05 50.48088 7.58276 28424 ft 431 kts 338°
2026-05-01 14:05 50.50861 7.56370 28872 ft 432 kts 338°
2026-05-01 14:06 50.53609 7.54483 29398 ft 431 kts 338°
2026-05-01 14:06 50.56283 7.52512 29953 ft 430 kts 332°
2026-05-01 14:06 50.58783 7.49932 30419 ft 430 kts 327°
2026-05-01 14:06 50.61322 7.47342 30897 ft 428 kts 329°
2026-05-01 14:07 50.63845 7.44754 31363 ft 428 kts 328°
2026-05-01 14:07 50.66339 7.42197 31845 ft 426 kts 328°
2026-05-01 14:07 50.68840 7.39631 32291 ft 425 kts 328°
2026-05-01 14:08 50.73714 7.34478 33098 ft 423 kts 320°
2026-05-01 14:08 50.75626 7.30874 33322 ft 427 kts 298°
2026-05-01 14:08 50.76862 7.26669 33656 ft 426 kts 296°
2026-05-01 14:08 50.78225 7.22469 34068 ft 424 kts 297°
2026-05-01 14:09 50.79547 7.18358 34471 ft 422 kts 297°
2026-05-01 14:09 50.80887 7.14217 34908 ft 421 kts 297°
2026-05-01 14:09 50.82204 7.10142 35295 ft 420 kts 297°
2026-05-01 14:09 50.83531 7.06041 35669 ft 419 kts 297°
2026-05-01 14:10 50.84851 7.01952 36044 ft 418 kts 297°
2026-05-01 14:10 50.86166 6.97879 36321 ft 418 kts 297°
2026-05-01 14:10 50.87528 6.93652 36250 ft 424 kts 297°
2026-05-01 14:11 50.90237 6.85227 36261 ft 432 kts 297°
2026-05-01 14:11 50.94403 6.72215 36261 ft 445 kts 297°
2026-05-01 14:12 50.97229 6.63348 36252 ft 453 kts 297°
2026-05-01 14:12 51.00082 6.54368 36251 ft 454 kts 297°
2026-05-01 14:13 51.02452 6.46887 36250 ft 453 kts 297°
2026-05-01 14:13 51.05751 6.36426 36242 ft 452 kts 297°
2026-05-01 14:14 51.08591 6.27383 36237 ft 453 kts 296°
2026-05-01 14:14 51.11413 6.18366 36237 ft 453 kts 296°
2026-05-01 14:15 51.14168 6.09340 36223 ft 452 kts 291°
2026-05-01 14:15 51.15722 5.99690 36252 ft 453 kts 284°
2026-05-01 14:16 51.17283 5.89924 36227 ft 453 kts 284°
2026-05-01 14:16 51.18765 5.80193 36216 ft 453 kts 281°
2026-05-01 14:17 51.20878 5.70758 36257 ft 453 kts 295°
2026-05-01 14:17 51.23123 5.61315 36223 ft 455 kts 290°
2026-05-01 14:18 51.25240 5.51736 36220 ft 453 kts 289°
2026-05-01 14:18 51.26272 5.47001 35976 ft 454 kts 289°
2026-05-01 14:18 51.26969 5.43783 36082 ft 452 kts 289°
2026-05-01 14:19 51.28331 5.37473 36260 ft 453 kts 289°
2026-05-01 14:19 51.29371 5.32647 36212 ft 457 kts 288°
2026-05-01 14:19 51.31455 5.22935 36222 ft 458 kts 288°
2026-05-01 14:20 51.34567 5.08336 36220 ft 457 kts 288°
2026-05-01 14:21 51.36621 4.98642 36217 ft 458 kts 288°
2026-05-01 14:21 51.38665 4.88960 36214 ft 458 kts 288°
2026-05-01 14:22 51.41705 4.74458 36214 ft 457 kts 288°
2026-05-01 14:22 51.43716 4.64806 36212 ft 458 kts 288°
2026-05-01 14:23 51.45752 4.54991 36206 ft 458 kts 288°
2026-05-01 14:23 51.47746 4.45326 36207 ft 458 kts 288°
2026-05-01 14:24 51.49746 4.35588 36205 ft 459 kts 288°
2026-05-01 14:24 51.51735 4.25862 36199 ft 459 kts 287°
2026-05-01 14:25 51.53731 4.16043 36197 ft 459 kts 287°
2026-05-01 14:25 51.55718 4.06220 36191 ft 460 kts 287°
2026-05-01 14:26 51.58669 3.91556 36185 ft 459 kts 286°
2026-05-01 14:27 51.60627 3.81750 36185 ft 459 kts 286°
2026-05-01 14:27 51.62577 3.71948 36184 ft 459 kts 286°
2026-05-01 14:28 51.65503 3.57134 36180 ft 461 kts 286°
2026-05-01 14:28 51.67431 3.47313 36180 ft 461 kts 286°
2026-05-01 14:29 51.69360 3.37437 36183 ft 461 kts 286°
2026-05-01 14:30 51.73117 3.17506 36166 ft 459 kts 278°
2026-05-01 14:30 51.73179 3.12451 36150 ft 453 kts 259°
2026-05-01 14:31 51.72034 3.02426 36170 ft 457 kts 260°
2026-05-01 14:31 51.71139 2.92356 36192 ft 455 kts 260°
2026-05-01 14:32 51.70246 2.82255 36171 ft 455 kts 260°
2026-05-01 14:32 51.69355 2.72216 36183 ft 455 kts 259°
2026-05-01 14:33 51.68445 2.62052 36171 ft 455 kts 259°
2026-05-01 14:33 51.67540 2.51994 36180 ft 454 kts 259°
2026-05-01 14:34 51.66621 2.41897 36170 ft 455 kts 259°
2026-05-01 14:34 51.65699 2.31867 36185 ft 455 kts 259°
2026-05-01 14:35 51.64761 2.21768 36176 ft 456 kts 258°
2026-05-01 14:35 51.63819 2.11735 36196 ft 455 kts 259°
2026-05-01 14:36 51.62884 2.01620 36171 ft 456 kts 259°
2026-05-01 14:36 51.61953 1.91620 36184 ft 456 kts 259°
2026-05-01 14:37 51.61008 1.81560 36176 ft 455 kts 259°
2026-05-01 14:37 51.60064 1.71605 36188 ft 453 kts 259°
2026-05-01 14:38 51.59126 1.61613 36164 ft 455 kts 261°
2026-05-01 14:38 51.59097 1.56520 36151 ft 459 kts 273°
2026-05-01 14:38 51.59454 1.51410 36203 ft 460 kts 272°
2026-05-01 14:39 51.59925 1.41180 36167 ft 460 kts 272°
2026-05-01 14:39 51.60368 1.30857 36169 ft 460 kts 271°
2026-05-01 14:40 51.60790 1.20650 36166 ft 459 kts 270°
2026-05-01 14:40 51.61198 1.10515 36165 ft 458 kts 271°
2026-05-01 14:41 51.61602 1.00253 36185 ft 459 kts 270°
2026-05-01 14:41 51.61992 0.90105 36159 ft 458 kts 270°
2026-05-01 14:42 51.62376 0.79896 36165 ft 458 kts 270°
2026-05-01 14:42 51.62751 0.69702 36163 ft 459 kts 270°
2026-05-01 14:43 51.63116 0.59495 36159 ft 458 kts 270°
2026-05-01 14:43 51.63474 0.49291 36154 ft 460 kts 270°
2026-05-01 14:44 51.63825 0.39028 36147 ft 458 kts 270°
2026-05-01 14:44 51.64329 0.23740 36147 ft 458 kts 270°
2026-05-01 14:45 51.64024 0.08564 36145 ft 449 kts 253°
2026-05-01 14:46 51.62857 -0.01318 36126 ft 453 kts 257°
2026-05-01 14:46 51.61734 -0.16309 36103 ft 458 kts 274°
2026-05-01 14:47 51.62569 -0.26443 36127 ft 458 kts 273°
2026-05-01 14:48 51.63522 -0.41681 36126 ft 458 kts 273°
2026-05-01 14:48 51.64425 -0.56883 36125 ft 457 kts 273°
2026-05-01 14:49 51.65598 -0.77200 36124 ft 457 kts 272°
2026-05-01 14:50 51.66730 -0.97466 36124 ft 455 kts 272°
2026-05-01 14:51 51.67556 -1.12641 36127 ft 455 kts 272°
2026-05-01 14:52 51.68364 -1.27836 36113 ft 456 kts 272°
2026-05-01 14:53 51.69152 -1.43098 36112 ft 455 kts 272°
2026-05-01 14:53 51.69665 -1.53225 36140 ft 456 kts 272°
2026-05-01 14:54 51.70169 -1.63342 36118 ft 454 kts 272°
2026-05-01 14:54 51.70539 -1.73464 36113 ft 453 kts 269°
2026-05-01 14:55 51.71442 -1.83514 36142 ft 455 kts 275°
2026-05-01 14:55 51.72275 -1.93597 36120 ft 455 kts 273°
2026-05-01 14:56 51.72958 -2.03705 36132 ft 456 kts 274°
2026-05-01 14:56 51.73660 -2.13829 36129 ft 455 kts 274°
2026-05-01 14:57 51.74355 -2.23919 36134 ft 454 kts 274°
2026-05-01 14:57 51.75377 -2.38986 36126 ft 454 kts 274°
2026-05-01 14:58 51.76058 -2.49182 36113 ft 455 kts 274°
2026-05-01 14:58 51.76727 -2.59344 36126 ft 455 kts 273°
2026-05-01 14:59 51.77386 -2.69496 36103 ft 455 kts 272°
2026-05-01 14:59 51.78039 -2.79637 36109 ft 455 kts 272°
2026-05-01 15:00 51.78992 -2.94773 36113 ft 455 kts 272°
2026-05-01 15:01 51.79616 -3.04877 36109 ft 453 kts 272°
2026-05-01 15:01 51.80235 -3.15029 36126 ft 454 kts 272°
2026-05-01 15:02 51.80844 -3.25121 36114 ft 455 kts 272°
2026-05-01 15:02 51.81447 -3.35269 36124 ft 455 kts 271°
2026-05-01 15:03 51.82041 -3.45458 36130 ft 455 kts 271°
2026-05-01 15:03 51.82679 -3.55589 36138 ft 457 kts 275°
2026-05-01 15:04 51.84040 -3.65603 36143 ft 460 kts 277°
2026-05-01 15:04 51.85354 -3.75679 36146 ft 459 kts 277°
2026-05-01 15:05 51.86650 -3.85785 36145 ft 461 kts 277°
2026-05-01 15:05 51.87939 -3.95890 36148 ft 462 kts 277°
2026-05-01 15:06 51.89378 -4.06034 36134 ft 461 kts 275°
2026-05-01 15:06 51.90528 -4.16221 36158 ft 464 kts 276°
2026-05-01 15:07 51.91774 -4.26410 36140 ft 463 kts 277°
2026-05-01 15:07 51.93024 -4.36568 36145 ft 464 kts 277°
2026-05-01 15:08 51.94278 -4.46802 36140 ft 464 kts 276°
2026-05-01 15:08 51.95526 -4.57046 36146 ft 464 kts 276°
2026-05-01 15:09 51.96763 -4.67290 36136 ft 464 kts 276°
2026-05-01 15:09 51.97987 -4.77511 36150 ft 463 kts 275°
2026-05-01 15:10 51.99195 -4.87680 36137 ft 464 kts 275°
2026-05-01 15:10 52.01012 -5.03099 36132 ft 464 kts 275°
2026-05-01 15:11 52.02841 -5.18427 36148 ft 464 kts 275°
2026-05-01 15:12 52.04744 -5.28524 36158 ft 471 kts 283°
2026-05-01 15:12 52.07790 -5.43617 36136 ft 471 kts 283°
2026-05-01 15:14 52.12849 -5.68957 36126 ft 471 kts 282°
2026-05-01 15:14 52.21420 -6.14494 36027 ft 471 kts 278°
2026-05-01 15:15 52.22681 -6.97709 36211 ft 460 kts 263°
2026-05-01 15:15 52.36793 -7.74648 36110 ft 489 kts 302°
2026-05-01 15:16 52.40773 -7.83637 36019 ft 481 kts 287°
2026-05-01 15:16 52.41826 -7.94231 36115 ft 467 kts 272°
2026-05-01 15:18 52.44684 -8.20398 36089 ft 468 kts 275°
2026-05-01 15:19 52.46999 -8.41396 36065 ft 469 kts 275°
2026-05-01 15:19 52.48716 -8.57186 36323 ft 471 kts 275°
2026-05-01 15:20 52.50406 -8.72914 36158 ft 467 kts 275°
2026-05-01 15:20 52.50959 -8.78120 36009 ft 468 kts 275°
2026-05-01 15:21 52.51516 -8.83393 36068 ft 465 kts 275°
2026-05-01 15:21 52.52622 -8.93897 36044 ft 466 kts 275°
2026-05-01 15:22 52.54256 -9.09609 36053 ft 466 kts 275°
2026-05-01 15:22 52.55332 -9.20070 36049 ft 466 kts 275°
2026-05-01 15:23 52.60487 -9.71659 36044 ft 467 kts 275°
2026-05-01 15:23 52.68436 -10.56109 36200 ft 472 kts 276°
2026-05-01 15:24 52.72174 -10.98593 35970 ft 471 kts 275°
2026-05-01 15:24 52.75857 -11.41696 36003 ft 469 kts 275°
2026-05-01 15:24 52.79069 -11.81383 35766 ft 469 kts 275°
2026-05-01 15:25 52.79493 -11.86694 35998 ft 466 kts 275°
2026-05-01 15:25 52.79916 -11.92023 36030 ft 472 kts 275°
2026-05-01 15:25 52.80331 -11.97346 36190 ft 474 kts 275°
2026-05-01 15:25 52.80753 -12.02747 35914 ft 471 kts 276°
2026-05-01 15:26 52.81167 -12.08077 36251 ft 469 kts 276°
2026-05-01 15:26 52.81575 -12.13439 36011 ft 476 kts 276°
2026-05-01 15:26 52.82391 -12.24132 36012 ft 467 kts 276°
2026-05-01 15:27 52.83196 -12.34827 36006 ft 470 kts 276°
2026-05-01 15:28 52.84381 -12.50819 36006 ft 470 kts 276°
2026-05-01 15:28 52.85163 -12.61524 36003 ft 471 kts 276°
2026-05-01 15:29 52.86317 -12.77632 36002 ft 470 kts 276°
2026-05-01 15:30 52.87817 -12.99015 36006 ft 470 kts 276°
2026-05-01 15:31 52.90001 -13.31196 36019 ft 472 kts 276°
2026-05-01 15:32 52.91411 -13.52713 36022 ft 472 kts 277°
2026-05-01 15:34 52.93447 -13.84922 36027 ft 470 kts 276°